• In Germany
  • List of Countries
  • For 7 days
  • Water Temperature
  • Satellite Maps
  • Weather Map
  • Weather Widgets
  • user-avatar
    Login

    Hourly Weather Baku

    Today, 25 November, Saturday

    Time Temperature Precipitation Wind Pressure Humidity
    00:00 +7°C° 0 mm 4 mps 764 mmHg 55%
    01:00 +7°C° 0 mm 5 mps 764 mmHg 54%
    02:00 +7°C° 0 mm 5 mps 764 mmHg 53%
    03:00 +6°C° 0 mm 5 mps 764 mmHg 53%
    04:00 +5°C° 0.1 mm 6 mps 765 mmHg 56%
    05:00 +5°C° 0.1 mm 6 mps 765 mmHg 59%
    06:00 +5°C° 0.1 mm 6 mps 765 mmHg 62%
    07:00 +6°C° 0.3 mm 7 mps 766 mmHg 59%
    08:00 +6°C° 0.3 mm 8 mps 767 mmHg 57%
    09:00 +6°C° 0.3 mm 8 mps 767 mmHg 54%
    10:00 +7°C° 0.4 mm 9 mps 767 mmHg 51%
    11:00 +7°C° 0.4 mm 10 mps 767 mmHg 49%
    12:00 +8°C° 0.4 mm 11 mps 768 mmHg 46%
    13:00 +8°C° 0.3 mm 11 mps 768 mmHg 47%
    14:00 +8°C° 0.3 mm 11 mps 769 mmHg 47%
    15:00 +8°C° 0.3 mm 10 mps 769 mmHg 48%
    16:00 +7°C° 0.4 mm 10 mps 770 mmHg 53%
    17:00 +7°C° 0.4 mm 10 mps 771 mmHg 59%
    18:00 +6°C° 0.4 mm 10 mps 772 mmHg 64%
    19:00 +6°C° 0.1 mm 9 mps 772 mmHg 65%
    20:00 +6°C° 0.1 mm 8 mps 772 mmHg 65%
    21:00 +6°C° 0.1 mm 7 mps 773 mmHg 66%
    22:00 +7°C° 0 mm 5 mps 773 mmHg 66%
    23:00 +6°C° 0 mm 4 mps 773 mmHg 66%

    Tomorrow, 26 November, Sunday

    Time Temperature Precipitation Wind Pressure Humidity
    00:00 +7°C° 0 mm 2 mps 773 mmHg 67%
    01:00 +7°C° 0 mm 2 mps 773 mmHg 66%
    02:00 +7°C° 0 mm 2 mps 772 mmHg 65%
    03:00 +7°C° 0 mm 2 mps 772 mmHg 65%
    04:00 +7°C° 0 mm 2 mps 772 mmHg 64%
    05:00 +7°C° 0 mm 3 mps 772 mmHg 63%
    06:00 +6°C° 0 mm 4 mps 771 mmHg 62%
    07:00 +7°C° 0 mm 5 mps 771 mmHg 61%
    08:00 +8°C° 0 mm 5 mps 771 mmHg 60%
    09:00 +8°C° 0 mm 6 mps 771 mmHg 59%
    10:00 +9°C° 0 mm 7 mps 770 mmHg 59%
    11:00 +9°C° 0 mm 7 mps 770 mmHg 60%
    12:00 +10°C° 0 mm 8 mps 769 mmHg 60%
    13:00 +10°C° 0.1 mm 8 mps 768 mmHg 59%
    14:00 +10°C° 0.1 mm 8 mps 768 mmHg 59%
    15:00 +10°C° 0.1 mm 8 mps 767 mmHg 58%
    16:00 +10°C° 0.1 mm 8 mps 767 mmHg 56%
    17:00 +9°C° 0.1 mm 8 mps 767 mmHg 54%
    18:00 +9°C° 0.1 mm 8 mps 767 mmHg 52%
    19:00 +8°C° 0 mm 7 mps 767 mmHg 49%
    20:00 +8°C° 0 mm 7 mps 767 mmHg 46%
    21:00 +8°C° 0 mm 7 mps 767 mmHg 43%
    22:00 +8°C° 0 mm 7 mps 767 mmHg 41%
    23:00 +8°C° 0 mm 6 mps 767 mmHg 38%

    Day after tomorrow, 27 November, Monday

    Time Temperature Precipitation Wind Pressure Humidity
    00:00 +8°C° 0 mm 5 mps 767 mmHg 36%
    01:00 +7°C° 0 mm 5 mps 766 mmHg 36%
    02:00 +7°C° 0 mm 4 mps 766 mmHg 36%
    03:00 +7°C° 0 mm 4 mps 766 mmHg 36%
    04:00 +7°C° 0 mm 4 mps 766 mmHg 44%
    05:00 +7°C° 0 mm 4 mps 766 mmHg 52%
    06:00 +7°C° 0 mm 4 mps 766 mmHg 60%
    07:00 +7°C° 0 mm 4 mps 767 mmHg 60%
    08:00 +7°C° 0 mm 4 mps 767 mmHg 59%
    09:00 +8°C° 0 mm 4 mps 767 mmHg 58%
    10:00 +8°C° 0 mm 4 mps 767 mmHg 56%
    11:00 +10°C° 0 mm 3 mps 766 mmHg 53%
    12:00 +10°C° 0 mm 3 mps 766 mmHg 51%
    13:00 +10°C° 0 mm 3 mps 766 mmHg 52%
    14:00 +10°C° 0 mm 4 mps 766 mmHg 53%
    15:00 +10°C° 0 mm 4 mps 765 mmHg 54%
    16:00 +10°C° 0 mm 4 mps 766 mmHg 58%
    17:00 +8°C° 0 mm 5 mps 766 mmHg 63%
    18:00 +8°C° 0 mm 6 mps 766 mmHg 67%
    19:00 +8°C° 0 mm 6 mps 766 mmHg 69%
    20:00 +8°C° 0 mm 6 mps 767 mmHg 70%
    21:00 +7°C° 0 mm 6 mps 767 mmHg 71%
    22:00 +7°C° 0 mm 6 mps 767 mmHg 72%
    23:00 +6°C° 0 mm 7 mps 767 mmHg 73%

    28 November, Tuesday

    Time Temperature Precipitation Wind Pressure Humidity
    00:00 +6°C° 0 mm 7 mps 767 mmHg 73%
    01:00 +6°C° 0 mm 7 mps 767 mmHg 73%
    02:00 +6°C° 0 mm 7 mps 767 mmHg 74%
    03:00 +5°C° 0 mm 7 mps 767 mmHg 74%
    04:00 +5°C° 0 mm 7 mps 767 mmHg 74%
    05:00 +5°C° 0 mm 7 mps 767 mmHg 75%
    06:00 +5°C° 0 mm 7 mps 767 mmHg 75%
    07:00 +5°C° 0 mm 7 mps 768 mmHg 72%
    08:00 +6°C° 0 mm 7 mps 768 mmHg 70%
    09:00 +6°C° 0 mm 7 mps 768 mmHg 67%
    10:00 +7°C° 0 mm 6 mps 768 mmHg 65%
    11:00 +8°C° 0 mm 5 mps 768 mmHg 62%
    12:00 +8°C° 0 mm 5 mps 767 mmHg 60%
    13:00 +8°C° 0 mm 4 mps 767 mmHg 60%
    14:00 +8°C° 0 mm 4 mps 767 mmHg 61%
    15:00 +8°C° 0 mm 4 mps 767 mmHg 61%
    16:00 +9°C° 0 mm 3 mps 767 mmHg 64%
    17:00 +9°C° 0 mm 2 mps 767 mmHg 67%
    18:00 +9°C° 0 mm 2 mps 767 mmHg 70%
    19:00 +9°C° 0 mm 2 mps 767 mmHg 70%
    20:00 +10°C° 0 mm 1 mps 767 mmHg 71%
    21:00 +10°C° 0 mm 1 mps 767 mmHg 72%
    22:00 +9°C° 0 mm 2 mps 767 mmHg 71%
    23:00 +9°C° 0 mm 2 mps 767 mmHg 70%

    29 November, Wednesday

    Time Temperature Precipitation Wind Pressure Humidity
    00:00 +9°C° 0 mm 3 mps 767 mmHg 70%
    01:00 +9°C° 0 mm 3 mps 767 mmHg 70%
    02:00 +9°C° 0 mm 3 mps 766 mmHg 70%
    03:00 +8°C° 0 mm 4 mps 766 mmHg 70%
    04:00 +8°C° 0 mm 4 mps 766 mmHg 71%
    05:00 +8°C° 0 mm 4 mps 766 mmHg 73%
    06:00 +8°C° 0 mm 5 mps 766 mmHg 74%
    07:00 +10°C° 0.1 mm 4 mps 767 mmHg 73%
    08:00 +10°C° 0.1 mm 4 mps 767 mmHg 71%
    09:00 +10°C° 0.1 mm 4 mps 767 mmHg 70%
    10:00 +11°C° 0.1 mm 4 mps 766 mmHg 68%
    11:00 +12°C° 0.1 mm 4 mps 766 mmHg 66%
    12:00 +12°C° 0.1 mm 4 mps 765 mmHg 65%
    13:00 +13°C° 0.1 mm 4 mps 765 mmHg 65%
    14:00 +13°C° 0.1 mm 4 mps 765 mmHg 66%
    15:00 +13°C° 0.1 mm 5 mps 765 mmHg 67%
    16:00 +13°C° 0.1 mm 5 mps 765 mmHg 69%
    17:00 +13°C° 0.1 mm 5 mps 765 mmHg 70%
    18:00 +12°C° 0.1 mm 5 mps 765 mmHg 71%
    19:00 +12°C° 0.1 mm 5 mps 765 mmHg 70%
    20:00 +12°C° 0.1 mm 5 mps 765 mmHg 69%
    21:00 +12°C° 0.1 mm 5 mps 765 mmHg 67%
    22:00 +12°C° 0.1 mm 5 mps 765 mmHg 68%
    23:00 +12°C° 0.1 mm 5 mps 764 mmHg 70%

    30 November, Thursday

    Time Temperature Precipitation Wind Pressure Humidity
    00:00 +12°C° 0.1 mm 5 mps 764 mmHg 71%
    01:00 +12°C° 0.1 mm 5 mps 764 mmHg 73%
    02:00 +12°C° 0.1 mm 4 mps 764 mmHg 74%
    03:00 +12°C° 0.1 mm 4 mps 764 mmHg 76%
    04:00 +12°C° 0 mm 4 mps 764 mmHg 77%
    05:00 +12°C° 0 mm 4 mps 764 mmHg 77%
    06:00 +12°C° 0 mm 4 mps 764 mmHg 78%
    07:00 +13°C° 0.1 mm 4 mps 764 mmHg 77%
    08:00 +13°C° 0.1 mm 4 mps 764 mmHg 75%
    09:00 +13°C° 0.1 mm 4 mps 764 mmHg 74%
    10:00 +13°C° 0 mm 3 mps 764 mmHg 73%
    11:00 +14°C° 0 mm 3 mps 764 mmHg 72%
    12:00 +15°C° 0 mm 2 mps 763 mmHg 71%
    13:00 +14°C° 0 mm 3 mps 763 mmHg 72%
    14:00 +14°C° 0 mm 3 mps 763 mmHg 72%
    15:00 +14°C° 0 mm 3 mps 763 mmHg 73%
    16:00 +14°C° 0.1 mm 4 mps 764 mmHg 75%
    17:00 +13°C° 0.1 mm 4 mps 764 mmHg 77%
    18:00 +13°C° 0.1 mm 5 mps 765 mmHg 79%
    19:00 +13°C° 0.1 mm 5 mps 765 mmHg 78%
    20:00 +12°C° 0.1 mm 5 mps 765 mmHg 77%
    21:00 +12°C° 0.1 mm 5 mps 765 mmHg 76%
    22:00 +12°C° 0.1 mm 5 mps 765 mmHg 75%
    23:00 +11°C° 0.1 mm 6 mps 765 mmHg 74%
    Show more